Location: Chandolas
(44.4033°N, 4.2533°E)
Time: 11:09:46
(UTC+00:00)

SL-4 R/B - Pass Details

Date: 15 November 2019
Orbit: 428 x 667 km, 51.6° (Epoch: 16 December)

Event Time Altitude Azimuth Distance (km) Brightness Sun altitude
Exits shadow 04:11:29 35° 8° (N) 1,084 3.5 -26.2°
Drops below altitude 10° 04:15:47 10° 70° (ENE) 2,089 5.9 -25.4°
Sets 04:18:18 0° 80° (E) 2,991 7.1 -25.0°
